FW0906 Weather Reports


time (UTC)temp
F
wind
direction
speed
knots
gust
knots
rain 1hr
in
rain 24hr
in
rain mn
in
humidity
%
barometer
mb
20260906130016 71 82 2.6 7.8 0.00 0.00 0.00 100 1020.3
20260906124501 70 77 0.9 7.0 0.00 0.00 0.00 100 1020.2
20260906123101 69 53 0.0 0.9 0.00 0.00 0.00 100 1020.2
20260906121553 68 51 0.0 2.6 0.00 0.00 0.00 100 1020.1
20260906120059 68 43 0.0 0.0 0.00 0.00 0.00 100 1019.7
20260906114555 68 42 0.0 0.0 0.00 0.00 0.00 100 1019.4
20260906113039 68 42 0.0 0.0 0.00 0.00 0.00 100 1019.4
20260906111543 68 42 0.0 0.0 0.00 0.00 0.00 100 1019.0
20260906110030 68 42 0.0 2.6 0.00 0.00 0.00 100 1018.9
20260906104539 68 42 0.0 2.6 0.00 0.00 0.00 100 1018.7
20260906103040 68 42 0.0 3.5 0.00 0.00 0.00 100 1018.5
20260906101518 68 34 0.0 3.5 0.00 0.00 0.00 100 1018.4
20260906100024 68 22 0.0 2.6 0.00 0.00 0.00 100 1018.4
20260906094508 68 21 0.0 0.0 0.00 0.00 0.00 100 1018.2
20260906093010 69 21 0.0 0.9 0.00 0.00 0.00 100 1018.2
20260906091601 69 21 0.0 0.0 0.00 0.00 0.00 100 1018.2
20260906090057 69 21 0.0 0.0 0.00 0.00 0.00 100 1018.2
20260906084556 70 21 0.0 0.0 0.00 0.00 0.00 100 1018.1
20260906083047 70 21 0.0 0.0 0.00 0.00 0.00 100 1018.0
20260906081543 70 21 0.0 0.0 0.00 0.00 0.00 100 1018.1
20260906080038 71 42 0.0 0.0 0.00 0.00 0.00 100 1018.2
20260906074537 71 48 0.0 0.0 0.00 0.00 0.00 100 1018.3
20260906073031 71 48 0.0 0.0 0.00 0.00 0.00 100 1018.2
20260906071525 71 48 0.0 1.7 0.00 0.00 0.00 100 1018.3
20260906070024 71 48 0.0 0.0 0.00 0.00 0.00 100 1018.4
20260906064517 71 48 0.0 0.0 0.00 0.00 0.00 100 1018.4
20260906063012 72 48 0.0 0.0 0.00 0.00 0.00 100 1018.3
20260906061510 72 47 0.0 0.0 0.00 0.00 0.00 100 1018.4
20260906060003 72 23 0.0 6.1 0.00 0.00 0.00 100 1018.5
20260906054623 72 66 0.0 3.5 0.00 0.00 0.00 100 1018.1
20260906053054 73 58 0.0 0.0 0.00 0.00 0.00 100 1018.2
20260906051550 73 67 0.0 0.0 0.00 0.00 0.00 100 1018.2
20260906050045 73 70 0.9 8.7 0.00 0.00 0.00 100 1017.8
20260906044541 73 63 0.0 0.0 0.00 0.00 0.00 100 1018.0
20260906043037 73 40 0.0 0.0 0.00 0.00 0.00 100 1017.6
20260906041532 74 82 0.0 6.1 0.00 0.00 0.00 100 1017.4
20260906040036 74 74 1.7 7.8 0.00 0.00 0.00 100 1017.2
20260906034523 74 98 0.9 7.8 0.00 0.00 0.00 100 1017.2
20260906033019 74 87 0.9 7.8 0.00 0.00 0.00 100 1017.2
20260906031549 74 88 2.6 12.2 0.00 0.00 0.00 100 1017.1
20260906030011 74 101 4.3 13.9 0.00 0.00 0.00 100 1017.0
20260906024524 74 76 1.7 9.6 0.00 0.00 0.00 100 1017.1
20260906023001 74 84 3.5 12.2 0.00 0.00 0.00 100 1017.0
20260906021604 75 80 1.7 12.2 0.00 0.00 0.00 100 1017.1
20260906020053 75 86 0.9 8.7 0.00 0.00 0.00 100 1017.0
20260906014553 75 78 3.5 9.6 0.00 0.00 0.00 100 1017.1
20260906013048 75 92 1.7 11.3 0.00 0.00 0.00 100 1017.0
20260906011540 74 49 2.6 8.7 0.00 0.00 0.00 100 1017.0
20260906010046 75 61 2.6 9.6 0.00 0.00 0.00 100 1017.0
20260906004531 75 77 2.6 11.3 0.00 0.00 0.00 100 1016.8
20260906003027 76 98 3.5 11.3 0.00 0.00 0.00 100 1016.7
20260906001530 77 76 0.0 5.2 0.00 0.00 0.00 100 1016.5
20260906000020 78 70 2.6 11.3 0.00 0.00 0.00 100 1016.1
20260905234515 79 91 4.3 10.4 0.00 0.00 0.00 100 1015.8
20260905233009 80 86 4.3 9.6 0.00 0.00 0.00 100 1015.8
20260905231505 82 70 1.7 7.8 0.00 0.00 0.00 100 1015.7
20260905224556 84 71 2.6 10.4 0.00 0.00 0.00 100 1015.3
20260905223052 84 91 2.6 11.3 0.00 0.00 0.00 100 1015.3
20260905221549 84 48 1.7 8.7 0.00 0.00 0.00 100 1015.2
20260905220043 86 73 1.7 7.8 0.00 0.00 0.00 100 1015.1
20260905214540 86 86 0.9 6.1 0.00 0.00 0.00 100 1015.4
20260905213038 86 65 1.7 7.0 0.00 0.00 0.00 100 1015.4
20260905211555 85 333 0.0 7.0 0.00 0.00 0.00 100 1015.5
20260905210025 85 46 0.0 7.8 0.00 0.00 0.00 100 1015.7
20260905204521 84 13 0.0 5.2 0.00 0.00 0.00 100 1016.1
20260905203017 82 47 0.0 7.0 0.00 0.00 0.00 100 1016.4
20260905201513 82 80 0.9 7.8 0.00 0.00 0.00 100 1016.5
20260905200009 83 17 1.7 12.2 0.00 0.00 0.00 100 1016.6
20260905194503 83 80 5.2 12.2 0.00 0.00 0.00 100 1016.8
20260905193101 0 0.0 0.0 0.00 0.00 0.00 1016.8
20260905191554 0 0.0 0.0 0.00 0.00 0.00 1016.8
20260905190050 0 0.0 0.0 0.00 0.00 0.00 1016.8
20260905184546 0 0.0 0.0 0.00 0.00 0.00 1016.8
20260905183045 0 0.0 0.0 0.00 0.00 0.00 1016.9
20260905181537 0 0.0 0.0 0.00 0.00 0.00 1016.9
20260905180033 0 0.0 0.0 0.00 0.00 0.00 1016.7
20260905174529 0 0.0 0.0 0.00 0.00 0.00 1016.6
20260905173048 0 0.0 0.0 0.00 0.00 0.00 1016.7
20260905171520 0 0.0 0.0 0.00 0.00 0.00 1016.7
20260905170015 0 0.0 0.0 0.00 0.00 0.00 1016.8
20260905164510 0 0.0 0.0 0.00 0.00 0.00 1016.9
20260905163005 0 0.0 0.0 0.00 0.00 0.00 1016.9
20260905161501 0 0.0 0.0 0.00 0.00 0.00 1016.9
20260905160057 0 0.0 0.0 0.00 0.00 0.00 1016.9
20260905154557 0 0.0 0.0 0.00 0.00 0.00 1016.7
20260905153048 0 0.0 0.0 0.00 0.00 0.00 1016.6
20260905151548 0 0.0 0.0 0.00 0.00 0.00 1016.4
20260905150039 0 0.0 0.0 0.00 0.00 0.00 1016.2
20260905144535 0 0.0 0.0 0.00 0.00 0.00 1015.9
20260905143034 0 0.0 0.0 0.00 0.00 0.00 1015.7
20260905141529 0 0.0 0.0 0.00 0.00 0.00 1015.5
20260905140021 0 0.0 0.0 0.00 0.00 0.00 1014.9
20260905134517 0 0.0 0.0 0.00 0.00 0.00 1014.9
20260905133013 0 0.0 0.0 0.00 0.00 0.00 1014.7
20260905131509 0 0.0 0.0 0.00 0.00 0.00 1015.1